Weather in Drachten

Netherlands     53°06′10″N   6°05′01″E
temp.,
°C
wind,
m/s
gust,
m/s
humid.,
%
clouds,
%
prec.,
mm/h
press.,
hPa
HPBL,
m
9 may, sun
sun923:00+12ssw61496100 0.0 1005498
02:00+11ssw513955 0.0 1005310
05:00+11s51396100 0.0 1004283
08:00+12s5129390 0.0 1004303
11:00+18s71075100 0.0 1003474
14:00+18s51087100 2.3 1002722
17:00+23ssw6127152 0.1 10001554
20:00+19ssw4882100 0.1 999186
10 may, mon
mon1023:00+15ssw2396100 2.1 100037
02:00+14s2299100 4.2 100057
05:00+14sse41097100 0.0 1000382
08:00+15sse51293100 0.0 1000465
11:00+14ssw91491100 0.5 10011033
14:00+12sw61192100 1.1 1006641
17:00+16ssw6869100 0.0 10071231
20:00+14sw3786100 0.4 1008273
11 may, tue
tue1123:00+12s2289100 0.0 100919
02:00+10wsw1191100 0.0 100910
05:00+10ene1191100 0.0 100910
08:00+12ese2291100 0.1 1010103
11:00+15ese3478100 0.4 1010554
14:00+13se4589100 1.3 1010367
17:00+13e2589100 0.1 1010498
20:00+12ene3691100 0.5 1010339
12 may, wed
wed1223:00+9ne2498100 0.0 101076
02:00+9nne2397100 0.0 101056
05:00+9n2397100 0.0 100994
08:00+10wnw1192100 0.0 100989
11:00+12nw2282100 0.0 1009491
14:00+14nw4477100 0.3 1010964
17:00+11wnw5789100 0.6 1010454
20:00+11wnw3586100 0.6 1011379
13 may, thu
thu1323:00+7wnw2294100 0.0 101128
02:00+7w2295100 0.0 101128
05:00+7wsw2294100 0.0 101121
08:00+9wsw2388100 0.0 1011155
11:00+13w2372100 0.0 1011858
14:00+15nw3366100 0.1 10111326
17:00+14nnw4469100 0.1 1010974
20:00+12n3585100 0.1 1011261